,,,PA_Meas_PMT16A,,PR_Meas_QMR101_102,,RH_Meas_QMH101,,SR_Meas_QMS101,,TA_Meas_QMH101,,GenWind,,GenWind,
date,time,status,PA,status,PR,status,RH,status,SR,status,TA,status,DirAvg,status,SpdAvg,
2009-04-19, 00:00:04,VALID,1000.57,VALID,0,VALID,91.0061,VALID,0,VALID,23.9372,VALID,355,VALID,0.264844,
2009-04-19, 00:01:04,VALID,1000.54,VALID,0,VALID,91.0977,VALID,0,VALID,23.9372,VALID,355,VALID,0.314453,
2009-04-19, 00:02:04,VALID,1000.54,VALID,0,VALID,91.0977,VALID,0,VALID,23.9372,VALID,355,VALID,0.433594,
2009-04-19, 00:03:04,VALID,1000.53,VALID,0,VALID,91.1358,VALID,0,VALID,23.9177,VALID,355,VALID,0.325391,
2009-04-19, 00:04:04,VALID,1000.52,VALID,0,VALID,91.0671,VALID,0,VALID,23.9177,VALID,355,VALID,0.498828,
2009-04-19, 00:05:04,VALID,1000.46,VALID,0,VALID,91.0595,VALID,0,VALID,23.9177,VALID,355,VALID,0.513281,
2009-04-19, 00:06:04,VALID,1000.46,VALID,0,VALID,90.9756,VALID,0,VALID,23.9177,VALID,63,VALID,0.663281,
2009-04-19, 00:07:04,VALID,1000.43,VALID,0,VALID,91.1968,VALID,0,VALID,23.9159,VALID,80,VALID,0.5875,
2009-04-19, 00:08:04,VALID,1000.4,VALID,0,VALID,91.3189,VALID,0,VALID,23.9159,VALID,84,VALID,0.688281,
2009-04-19, 00:09:04,VALID,1000.34,VALID,0,VALID,91.3647,VALID,0,VALID,23.9372,VALID,86,VALID,0.419922,
2009-04-19, 00:10:04,VALID,1000.33,VALID,0,VALID,91.4257,VALID,0,VALID,23.8963,VALID,86,VALID,0.271484,
2009-04-19, 00:11:04,VALID,1000.31,VALID,0,VALID,91.5097,VALID,0,VALID,23.9177,VALID,86,VALID,0.269922,
2009-04-19, 00:12:04,VALID,1000.28,VALID,0,VALID,91.38,VALID,0,VALID,23.8768,VALID,86,VALID,0.35625,
2009-04-19, 00:13:04,VALID,1000.28,VALID,0,VALID,91.38,VALID,0,VALID,23.8982,VALID,86,VALID,0.307422,
2009-04-19, 00:14:04,VALID,1000.26,VALID,0,VALID,91.38,VALID,0,VALID,23.8982,VALID,86,VALID,0.385547,
2009-04-19, 00:15:04,VALID,1000.25,VALID,0,VALID,91.4486,VALID,0,VALID,23.8768,VALID,86,VALID,0.348047,
2009-04-19, 00:16:04,VALID,1000.23,VALID,0,VALID,91.5249,VALID,0,VALID,23.8982,VALID,86,VALID,0.50625,
2009-04-19, 00:17:04,VALID,1000.2,VALID,0,VALID,91.3342,VALID,0,VALID,23.8768,VALID,86,VALID,0.89375,
2009-04-19, 00:18:04,VALID,1000.16,VALID,0,VALID,91.0671,VALID,0,VALID,23.8963,VALID,86,VALID,0.989844,
2009-04-19, 00:19:04,VALID,1000.17,VALID,0,VALID,91.1587,VALID,0,VALID,23.9159,VALID,93,VALID,0.889063,
2009-04-19, 00:20:04,VALID,1000.16,VALID,0,VALID,91.3952,VALID,0,VALID,23.9567,VALID,100,VALID,0.473828,
2009-04-19, 00:21:04,VALID,1000.15,VALID,0,VALID,91.586,VALID,0,VALID,23.9567,VALID,100,VALID,0.176172,
2009-04-19, 00:22:04,VALID,1000.15,VALID,0,VALID,91.6317,VALID,0,VALID,23.9372,VALID,100,VALID,0.0253906,
2009-04-19, 00:23:04,VALID,1000.11,VALID,0,VALID,91.7157,VALID,0,VALID,23.9159,VALID,100,VALID,0,
2009-04-19, 00:24:04,VALID,1000.07,VALID,0,VALID,91.998,VALID,0,VALID,23.9372,VALID,100,VALID,0.513281,
2009-04-19, 00:25:04,VALID,999.999,VALID,0,VALID,92.0743,VALID,0,VALID,23.9177,VALID,100,VALID,0.996484,
2009-04-19, 00:26:04,VALID,1000.01,VALID,0,VALID,91.9598,VALID,0,VALID,23.9177,VALID,100,VALID,0.744141,
2009-04-19, 00:27:04,VALID,1000.02,VALID,0,VALID,91.9674,VALID,0,VALID,23.9177,VALID,100,VALID,0.0117188,
2009-04-19, 00:28:04,VALID,1000.01,VALID,0,VALID,91.9751,VALID,0,VALID,23.8963,VALID,100,VALID,0,
2009-04-19, 00:29:04,VALID,999.983,VALID,0,VALID,91.9598,VALID,0,VALID,23.8768,VALID,100,VALID,0.245312,
2009-04-19, 00:30:04,VALID,999.956,VALID,0,VALID,92.0132,VALID,0,VALID,23.8982,VALID,100,VALID,0.283984,
2009-04-19, 00:31:04,VALID,999.961,VALID,0,VALID,92.0056,VALID,0,VALID,23.8982,VALID,147,VALID,0.477734,
2009-04-19, 00:32:04,VALID,999.921,VALID,0,VALID,91.914,VALID,0,VALID,23.8786,VALID,147,VALID,0.357031,
2009-04-19, 00:33:04,VALID,999.923,VALID,0,VALID,92.0743,VALID,0,VALID,23.9159,VALID,147,VALID,0.554297,
2009-04-19, 00:34:04,VALID,999.92,VALID,0,VALID,91.7767,VALID,0,VALID,23.9372,VALID,106,VALID,0.669531,
2009-04-19, 00:35:04,VALID,999.878,VALID,0,VALID,91.8072,VALID,0,VALID,23.9567,VALID,102,VALID,0.768359,
2009-04-19, 00:36:04,VALID,999.915,VALID,0,VALID,91.8072,VALID,0,VALID,23.9567,VALID,102,VALID,0.651172,
2009-04-19, 00:37:04,VALID,999.9,VALID,0,VALID,91.9522,VALID,0,VALID,23.9372,VALID,102,VALID,0.671875,
2009-04-19, 00:38:04,VALID,999.891,VALID,0,VALID,92.0666,VALID,0,VALID,23.9159,VALID,102,VALID,0.551953,
2009-04-19, 00:39:04,VALID,999.869,VALID,0,VALID,91.7462,VALID,0,VALID,23.8982,VALID,96,VALID,0.877344,
2009-04-19, 00:40:04,VALID,999.887,VALID,0,VALID,91.8606,VALID,0,VALID,23.8982,VALID,97,VALID,0.605078,
2009-04-19, 00:41:04,VALID,999.873,VALID,0,VALID,91.8759,VALID,0,VALID,23.8573,VALID,99,VALID,0.364844,
2009-04-19, 00:42:04,VALID,999.824,VALID,0,VALID,91.8454,VALID,0.112286,VALID,23.8591,VALID,99,VALID,0.264844,
2009-04-19, 00:43:04,VALID,999.859,VALID,0,VALID,91.8454,VALID,0,VALID,23.8396,VALID,99,VALID,0,
2009-04-19, 00:44:04,VALID,999.846,VALID,0,VALID,91.998,VALID,0,VALID,23.8201,VALID,99,VALID,0,
2009-04-19, 00:45:04,VALID,999.807,VALID,0,VALID,92.0132,VALID,0,VALID,23.8201,VALID,99,VALID,0.551562,
2009-04-19, 00:46:04,VALID,999.784,VALID,0,VALID,91.7538,VALID,0,VALID,23.8006,VALID,84,VALID,0.748438,
2009-04-19, 00:47:04,VALID,999.785,VALID,0,VALID,91.5326,VALID,0,VALID,23.8201,VALID,83,VALID,0.741406,
2009-04-19, 00:48:04,VALID,999.801,VALID,0,VALID,91.3189,VALID,0,VALID,23.8396,VALID,72,VALID,0.828125,
2009-04-19, 00:49:04,VALID,999.785,VALID,0,VALID,91.3342,VALID,0,VALID,23.8396,VALID,72,VALID,0.458594,
2009-04-19, 00:50:04,VALID,999.801,VALID,0,VALID,91.3189,VALID,0,VALID,23.8378,VALID,72,VALID,0.179297,
2009-04-19, 00:51:04,VALID,999.764,VALID,0,VALID,91.3723,VALID,0,VALID,23.8378,VALID,72,VALID,0.0203125,
2009-04-19, 00:52:04,VALID,999.761,VALID,0,VALID,91.4334,VALID,0,VALID,23.8396,VALID,72,VALID,0.217969,
2009-04-19, 00:53:04,VALID,999.751,VALID,0,VALID,91.4486,VALID,0,VALID,23.8201,VALID,72,VALID,0.0902344,
2009-04-19, 00:54:04,VALID,999.729,VALID,0,VALID,91.4791,VALID,0,VALID,23.8201,VALID,72,VALID,0,
2009-04-19, 00:55:04,VALID,999.708,VALID,0,VALID,91.6623,VALID,0,VALID,23.8201,VALID,72,VALID,0,
2009-04-19, 00:56:04,VALID,999.691,VALID,0,VALID,91.998,VALID,0,VALID,23.8006,VALID,72,VALID,0.296094,
2009-04-19, 00:57:04,VALID,999.657,VALID,0,VALID,91.8988,VALID,0,VALID,23.7793,VALID,72,VALID,0.227734,
2009-04-19, 00:58:04,VALID,999.659,VALID,0,VALID,91.914,VALID,0,VALID,23.7811,VALID,72,VALID,0.439453,
2009-04-19, 00:59:04,VALID,999.651,VALID,0,VALID,92.1353,VALID,0,VALID,23.7402,VALID,72,VALID,0.3375,
2009-04-19, 01:00:04,VALID,999.664,VALID,0,VALID,92.204,VALID,0,VALID,23.742,VALID,71,VALID,0.536328,
2009-04-19, 01:01:04,VALID,999.634,VALID,0,VALID,92.0666,VALID,0,VALID,23.7225,VALID,71,VALID,0.729688,
2009-04-19, 01:02:04,VALID,999.627,VALID,0,VALID,92.1048,VALID,0,VALID,23.7012,VALID,72,VALID,0.477344,
2009-04-19, 01:03:04,VALID,999.623,VALID,0,VALID,91.8377,VALID,0,VALID,23.7225,VALID,92,VALID,0.784375,
2009-04-19, 01:04:04,VALID,999.646,VALID,0,VALID,91.7004,VALID,0,VALID,23.742,VALID,75,VALID,0.474219,
2009-04-19, 01:05:04,VALID,999.649,VALID,0,VALID,91.647,VALID,0,VALID,23.7811,VALID,75,VALID,0.490234,
2009-04-19, 01:06:04,VALID,999.63,VALID,0,VALID,91.5707,VALID,0,VALID,23.7793,VALID,58,VALID,0.570703,
2009-04-19, 01:07:04,VALID,999.627,VALID,0,VALID,91.7309,VALID,0,VALID,23.8006,VALID,49,VALID,0.605469,
2009-04-19, 01:08:04,VALID,999.617,VALID,0,VALID,91.8301,VALID,0,VALID,23.8006,VALID,47,VALID,0.658984,
2009-04-19, 01:09:04,VALID,999.595,VALID,0,VALID,91.9751,VALID,0,VALID,23.7597,VALID,46,VALID,0.635156,
2009-04-19, 01:10:04,VALID,999.584,VALID,0,VALID,92.1353,VALID,0,VALID,23.742,VALID,46,VALID,0.616797,
2009-04-19, 01:11:04,VALID,999.589,VALID,0,VALID,92.2421,VALID,0,VALID,23.742,VALID,46,VALID,0.305859,
2009-04-19, 01:12:04,VALID,999.573,VALID,0,VALID,92.3413,VALID,0,VALID,23.7225,VALID,46,VALID,0.0117188,
2009-04-19, 01:13:04,VALID,999.561,VALID,0,VALID,92.4328,VALID,0,VALID,23.6835,VALID,46,VALID,0,
2009-04-19, 01:14:04,VALID,999.59,VALID,0,VALID,92.5244,VALID,0,VALID,23.664,VALID,46,VALID,0,
2009-04-19, 01:15:04,VALID,999.549,VALID,0,VALID,92.5854,VALID,0,VALID,23.664,VALID,46,VALID,0,
2009-04-19, 01:16:04,VALID,999.53,VALID,0,VALID,92.8906,VALID,0,VALID,23.6427,VALID,57,VALID,0.540234,
2009-04-19, 01:17:04,VALID,999.52,VALID,0,VALID,92.7304,VALID,0,VALID,23.6445,VALID,78,VALID,0.875,
2009-04-19, 01:18:04,VALID,999.509,VALID,0,VALID,92.4405,VALID,0,VALID,23.6445,VALID,106,VALID,0.769922,
2009-04-19, 01:19:04,VALID,999.505,VALID,0,VALID,92.1048,VALID,0,VALID,23.6835,VALID,128,VALID,0.661328,
2009-04-19, 01:20:04,VALID,999.505,VALID,0,VALID,91.9293,VALID,0,VALID,23.703,VALID,129,VALID,0.453906,
2009-04-19, 01:21:04,VALID,999.521,VALID,0,VALID,91.8606,VALID,0,VALID,23.742,VALID,129,VALID,0.232031,
2009-04-19, 01:22:04,VALID,999.5,VALID,0,VALID,91.7843,VALID,0,VALID,23.7207,VALID,129,VALID,0,
2009-04-19, 01:23:04,VALID,999.484,VALID,0,VALID,91.7385,VALID,0,VALID,23.7225,VALID,129,VALID,0.0570313,
2009-04-19, 01:24:04,VALID,999.485,VALID,0,VALID,91.6928,VALID,0,VALID,23.7207,VALID,115,VALID,0.591797,
2009-04-19, 01:25:04,VALID,999.5,VALID,0,VALID,91.4334,VALID,0,VALID,23.742,VALID,65,VALID,1.19141,
2009-04-19, 01:26:04,VALID,999.489,VALID,0,VALID,91.4334,VALID,0,VALID,23.7616,VALID,71,VALID,0.905469,
2009-04-19, 01:27:04,VALID,999.487,VALID,0,VALID,91.586,VALID,0,VALID,23.7402,VALID,69,VALID,0.580469,
2009-04-19, 01:28:04,VALID,999.452,VALID,0,VALID,91.7385,VALID,0,VALID,23.7402,VALID,69,VALID,0.595703,
2009-04-19, 01:29:04,VALID,999.449,VALID,0,VALID,91.8454,VALID,0,VALID,23.7207,VALID,74,VALID,0.194141,
2009-04-19, 01:30:04,VALID,999.454,VALID,0,VALID,91.8988,VALID,0,VALID,23.7012,VALID,74,VALID,0.120312,
2009-04-19, 01:31:04,VALID,999.453,VALID,0,VALID,91.9522,VALID,0,VALID,23.7012,VALID,74,VALID,0.384375,
2009-04-19, 01:32:04,VALID,999.445,VALID,0,VALID,91.9369,VALID,0,VALID,23.6817,VALID,74,VALID,0.503516,
2009-04-19, 01:33:04,VALID,999.453,VALID,0,VALID,91.8377,VALID,0,VALID,23.6835,VALID,74,VALID,0.675391,
2009-04-19, 01:34:04,VALID,999.429,VALID,0,VALID,91.9369,VALID,0,VALID,23.703,VALID,73,VALID,0.680078,
2009-04-19, 01:35:04,VALID,999.446,VALID,0,VALID,92.059,VALID,0,VALID,23.6622,VALID,73,VALID,0.429688,
2009-04-19, 01:36:04,VALID,999.456,VALID,0,VALID,92.1277,VALID,0,VALID,23.6622,VALID,68,VALID,0.54375,
2009-04-19, 01:37:04,VALID,999.447,VALID,0,VALID,92.1887,VALID,0,VALID,23.6835,VALID,63,VALID,0.295703,
2009-04-19, 01:38:04,VALID,999.446,VALID,0,VALID,92.2421,VALID,0,VALID,23.6427,VALID,63,VALID,0.0804688,
2009-04-19, 01:39:04,VALID,999.462,VALID,0,VALID,92.2726,VALID,0,VALID,23.6427,VALID,63,VALID,0,
2009-04-19, 01:40:04,VALID,999.44,VALID,0,VALID,92.3337,VALID,0,VALID,23.6036,VALID,63,VALID,0,
2009-04-19, 01:41:04,VALID,999.438,VALID,0,VALID,92.5244,VALID,0,VALID,23.625,VALID,63,VALID,0.207031,
2009-04-19, 01:42:04,VALID,999.44,VALID,0,VALID,92.6694,VALID,0,VALID,23.5859,VALID,63,VALID,0.19375,
2009-04-19, 01:43:04,VALID,999.42,VALID,0,VALID,92.8067,VALID,0,VALID,23.5859,VALID,63,VALID,0.246094,
2009-04-19, 01:44:04,VALID,999.391,VALID,0,VALID,92.7151,VALID,0,VALID,23.5469,VALID,63,VALID,0.371094,
2009-04-19, 01:45:04,VALID,999.38,VALID,0,VALID,92.4023,VALID,0,VALID,23.5274,VALID,70,VALID,0.533984,
2009-04-19, 01:46:04,VALID,999.38,VALID,0,VALID,92.12,VALID,0,VALID,23.5469,VALID,137,VALID,0.180078,
2009-04-19, 01:47:04,VALID,999.345,VALID,0,VALID,91.9293,VALID,0,VALID,23.5256,VALID,119,VALID,0.645312,
2009-04-19, 01:48:04,VALID,999.347,VALID,0,VALID,91.6394,VALID,0,VALID,23.5664,VALID,112,VALID,0.346484,
2009-04-19, 01:49:04,VALID,999.324,VALID,0,VALID,91.3647,VALID,0,VALID,23.5859,VALID,98,VALID,0.415625,
2009-04-19, 01:50:04,VALID,999.316,VALID,0,VALID,91.2274,VALID,0,VALID,23.5841,VALID,87,VALID,0.516406,
2009-04-19, 01:51:04,VALID,999.316,VALID,0,VALID,91.09,VALID,0,VALID,23.5859,VALID,87,VALID,0.370703,
2009-04-19, 01:52:04,VALID,999.294,VALID,0,VALID,90.9832,VALID,0,VALID,23.5841,VALID,88,VALID,0.232422,
2009-04-19, 01:53:04,VALID,999.32,VALID,0,VALID,90.7849,VALID,0,VALID,23.5859,VALID,87,VALID,0.373437,
2009-04-19, 01:54:04,VALID,999.316,VALID,0,VALID,90.6857,VALID,0,VALID,23.5859,VALID,87,VALID,0.372656,
2009-04-19, 01:55:04,VALID,999.318,VALID,0,VALID,90.6094,VALID,0,VALID,23.5859,VALID,57,VALID,0.650391,
2009-04-19, 01:56:04,VALID,999.284,VALID,0,VALID,90.6475,VALID,0,VALID,23.5859,VALID,60,VALID,0.881641,
2009-04-19, 01:57:04,VALID,999.296,VALID,0,VALID,90.6704,VALID,0,VALID,23.5664,VALID,77,VALID,0.953906,
2009-04-19, 01:58:04,VALID,999.275,VALID,0,VALID,90.6628,VALID,0,VALID,23.5859,VALID,103,VALID,1.04961,
2009-04-19, 01:59:04,VALID,999.285,VALID,0,VALID,90.7467,VALID,0,VALID,23.5664,VALID,118,VALID,0.850391,
2009-04-19, 02:00:04,VALID,999.293,VALID,0,VALID,90.9374,VALID,0,VALID,23.5274,VALID,118,VALID,0.360547,
2009-04-19, 02:01:04,VALID,999.295,VALID,0,VALID,91.0595,VALID,0,VALID,23.4884,VALID,118,VALID,0.15625,
2009-04-19, 02:02:04,VALID,999.271,VALID,0,VALID,91.1968,VALID,0,VALID,23.4688,VALID,118,VALID,0.430859,
2009-04-19, 02:03:04,VALID,999.25,VALID,0,VALID,91.4105,VALID,0,VALID,23.4493,VALID,118,VALID,0.639453,
2009-04-19, 02:04:04,VALID,999.269,VALID,0,VALID,91.3189,VALID,0,VALID,23.4493,VALID,102,VALID,0.542188,
2009-04-19, 02:05:04,VALID,999.227,VALID,0,VALID,91.2503,VALID,0,VALID,23.4298,VALID,46,VALID,0.613281,
2009-04-19, 02:06:04,VALID,999.202,VALID,0,VALID,91.4257,VALID,0,VALID,23.4493,VALID,3,VALID,0.959766,
2009-04-19, 02:07:04,VALID,999.212,VALID,0,VALID,91.5631,VALID,0,VALID,23.3908,VALID,349,VALID,0.817969,
2009-04-19, 02:08:04,VALID,999.197,VALID,0,VALID,91.7843,VALID,0,VALID,23.3518,VALID,349,VALID,0.491797,
2009-04-19, 02:09:04,VALID,999.191,VALID,0,VALID,92.1811,VALID,0,VALID,23.3127,VALID,50,VALID,0.928516,
2009-04-19, 02:10:04,VALID,999.151,VALID,0,VALID,92.2192,VALID,0,VALID,23.2737,VALID,50,VALID,1.33203,
2009-04-19, 02:11:04,VALID,999.152,VALID,0,VALID,92.3871,VALID,0,VALID,23.2347,VALID,49,VALID,1.11445,
2009-04-19, 02:12:04,VALID,999.162,VALID,0,VALID,92.471,VALID,0,VALID,23.2152,VALID,46,VALID,0.566406,
2009-04-19, 02:13:04,VALID,999.175,VALID,0,VALID,92.5778,VALID,0,VALID,23.1957,VALID,353,VALID,0.798437,
2009-04-19, 02:14:04,VALID,999.158,VALID,0,VALID,92.7533,VALID,0,VALID,23.1762,VALID,351,VALID,0.886719,
2009-04-19, 02:15:04,VALID,999.173,VALID,0,VALID,92.7991,VALID,0,VALID,23.1957,VALID,26,VALID,1.03984,
2009-04-19, 02:16:04,VALID,999.159,VALID,0,VALID,92.738,VALID,0,VALID,23.1957,VALID,42,VALID,1.0918,
2009-04-19, 02:17:04,VALID,999.155,VALID,0,VALID,92.7991,VALID,0,VALID,23.1762,VALID,43,VALID,1.01406,
2009-04-19, 02:18:04,VALID,999.161,VALID,0,VALID,92.8296,VALID,0,VALID,23.1762,VALID,45,VALID,1.03906,
2009-04-19, 02:19:04,VALID,999.174,VALID,0,VALID,92.9059,VALID,0,VALID,23.1566,VALID,49,VALID,1.13203,
2009-04-19, 02:20:04,VALID,999.159,VALID,0,VALID,93.0966,VALID,0,VALID,23.1566,VALID,62,VALID,1.19141,
2009-04-19, 02:21:04,VALID,999.171,VALID,0,VALID,93.15,VALID,0,VALID,23.1371,VALID,62,VALID,1.01563,
2009-04-19, 02:22:04,VALID,999.134,VALID,0,VALID,93.1729,VALID,0,VALID,23.1354,VALID,53,VALID,1.09375,
2009-04-19, 02:23:04,VALID,999.134,VALID,0,VALID,93.2263,VALID,0,VALID,23.1566,VALID,61,VALID,0.865625,
2009-04-19, 02:24:04,VALID,999.102,VALID,0,VALID,93.1577,VALID,0,VALID,23.1762,VALID,60,VALID,0.755469,
2009-04-19, 02:25:04,VALID,999.122,VALID,0,VALID,93.089,VALID,0,VALID,23.1566,VALID,60,VALID,0.635156,
2009-04-19, 02:26:04,VALID,999.084,VALID,0,VALID,93.0814,VALID,0,VALID,23.1371,VALID,60,VALID,0.557422,
2009-04-19, 02:27:04,VALID,999.075,VALID,0,VALID,93.089,VALID,0,VALID,23.1176,VALID,60,VALID,0.667969,
2009-04-19, 02:28:04,VALID,999.073,VALID,0,VALID,93.1043,VALID,0,VALID,23.1176,VALID,46,VALID,0.60625,
2009-04-19, 02:29:04,VALID,999.063,VALID,0,VALID,93.1577,VALID,0,VALID,23.0981,VALID,37,VALID,0.8875,
2009-04-19, 02:30:04,VALID,999.08,VALID,0,VALID,93.1271,VALID,0,VALID,23.0981,VALID,35,VALID,1.03086,
2009-04-19, 02:31:04,VALID,999.03,VALID,0,VALID,93.234,VALID,0,VALID,23.0786,VALID,33,VALID,1.07734,
2009-04-19, 02:32:04,VALID,999.058,VALID,0,VALID,93.295,VALID,0,VALID,23.0786,VALID,34,VALID,0.951172,
2009-04-19, 02:33:04,VALID,999.034,VALID,0,VALID,93.3331,VALID,0,VALID,23.0378,VALID,48,VALID,0.733203,
2009-04-19, 02:34:04,VALID,999,VALID,0,VALID,93.356,VALID,0,VALID,23.0378,VALID,57,VALID,0.629687,
2009-04-19, 02:35:04,VALID,998.992,VALID,0,VALID,93.3255,VALID,0,VALID,23.0396,VALID,77,VALID,0.6875,
2009-04-19, 02:36:04,VALID,998.994,VALID,0,VALID,93.3026,VALID,0,VALID,23.0183,VALID,87,VALID,0.686719,
2009-04-19, 02:37:04,VALID,998.965,VALID,0,VALID,93.2797,VALID,0,VALID,23.0396,VALID,88,VALID,0.384375,
2009-04-19, 02:38:04,VALID,998.989,VALID,0,VALID,93.3484,VALID,0,VALID,23.0378,VALID,88,VALID,0.454297,
2009-04-19, 02:39:04,VALID,998.996,VALID,0,VALID,93.3789,VALID,0,VALID,23.0378,VALID,88,VALID,0.364453,
2009-04-19, 02:40:04,VALID,998.971,VALID,0,VALID,93.3331,VALID,0,VALID,23.0183,VALID,88,VALID,0.310156,
2009-04-19, 02:41:04,VALID,998.948,VALID,0,VALID,93.2645,VALID,0.112286,VALID,22.9971,VALID,88,VALID,0.273438,
2009-04-19, 02:42:04,VALID,998.994,VALID,0,VALID,93.2492,VALID,0,VALID,23.0201,VALID,88,VALID,0.153125,
2009-04-19, 02:43:04,VALID,998.983,VALID,0,VALID,93.3179,VALID,0.112286,VALID,22.9776,VALID,88,VALID,0.123047,
2009-04-19, 02:44:04,VALID,998.996,VALID,0,VALID,93.3866,VALID,0,VALID,22.9988,VALID,88,VALID,0.0496094,
2009-04-19, 02:45:04,VALID,998.98,VALID,0,VALID,93.3637,VALID,0,VALID,22.9581,VALID,88,VALID,0,
2009-04-19, 02:46:04,VALID,998.989,VALID,0,VALID,93.3713,VALID,0,VALID,22.9598,VALID,88,VALID,0,
2009-04-19, 02:47:04,VALID,999.037,VALID,0,VALID,93.4476,VALID,0,VALID,22.9403,VALID,88,VALID,0,
2009-04-19, 02:48:04,VALID,999.029,VALID,0,VALID,93.5239,VALID,0,VALID,22.9403,VALID,88,VALID,0,
2009-04-19, 02:49:04,VALID,999.068,VALID,0,VALID,93.5544,VALID,0,VALID,22.9208,VALID,88,VALID,0,
2009-04-19, 02:50:04,VALID,999.077,VALID,0,VALID,93.6688,VALID,0.112286,VALID,22.88,VALID,88,VALID,0,
2009-04-19, 02:51:04,VALID,999.103,VALID,0,VALID,93.8367,VALID,0,VALID,22.9208,VALID,88,VALID,0,
2009-04-19, 02:52:04,VALID,999.097,VALID,0,VALID,93.9511,VALID,0,VALID,22.9208,VALID,88,VALID,0.233203,
2009-04-19, 02:53:04,VALID,999.115,VALID,0,VALID,93.9359,VALID,0,VALID,22.9208,VALID,88,VALID,0.240625,
2009-04-19, 02:54:04,VALID,999.103,VALID,0,VALID,93.9359,VALID,0.112286,VALID,22.9403,VALID,88,VALID,0.0671875,
2009-04-19, 02:55:04,VALID,999.115,VALID,0,VALID,93.9664,VALID,0,VALID,22.9598,VALID,88,VALID,0,
2009-04-19, 02:56:04,VALID,999.116,VALID,0,VALID,93.8901,VALID,0.112286,VALID,22.9598,VALID,88,VALID,0,
2009-04-19, 02:57:04,VALID,999.14,VALID,0,VALID,93.8901,VALID,0.112286,VALID,22.9988,VALID,88,VALID,0,
2009-04-19, 02:58:04,VALID,999.135,VALID,0,VALID,93.852,VALID,0,VALID,23.0183,VALID,88,VALID,0,
2009-04-19, 02:59:04,VALID,999.137,VALID,0,VALID,93.8214,VALID,0,VALID,23.0183,VALID,88,VALID,0,
2009-04-19, 03:00:04,VALID,999.136,VALID,0,VALID,93.7909,VALID,0,VALID,23.0378,VALID,88,VALID,0,
2009-04-19, 03:01:04,VALID,999.133,VALID,0,VALID,93.7375,VALID,0,VALID,23.0378,VALID,88,VALID,0,
2009-04-19, 03:02:04,VALID,999.135,VALID,0,VALID,93.7223,VALID,0,VALID,23.0573,VALID,88,VALID,0.520312,
2009-04-19, 03:03:04,VALID,999.119,VALID,0,VALID,93.7833,VALID,0.112286,VALID,23.0964,VALID,83,VALID,0.650781,
2009-04-19, 03:04:04,VALID,999.125,VALID,0,VALID,93.5315,VALID,0,VALID,23.0964,VALID,76,VALID,0.791406,
2009-04-19, 03:05:04,VALID,999.133,VALID,0,VALID,93.2797,VALID,0,VALID,23.1159,VALID,73,VALID,0.696875,
2009-04-19, 03:06:04,VALID,999.134,VALID,0,VALID,93.15,VALID,0,VALID,23.1159,VALID,72,VALID,0.476953,
2009-04-19, 03:07:04,VALID,999.106,VALID,0,VALID,93.1119,VALID,0,VALID,23.1159,VALID,72,VALID,0.45625,
2009-04-19, 03:08:04,VALID,999.114,VALID,0,VALID,93.15,VALID,0,VALID,23.0786,VALID,72,VALID,0.457812,
2009-04-19, 03:09:04,VALID,999.132,VALID,0,VALID,93.2187,VALID,0,VALID,23.0786,VALID,72,VALID,0.398047,
2009-04-19, 03:10:04,VALID,999.081,VALID,0,VALID,93.234,VALID,0,VALID,23.0591,VALID,72,VALID,0.379687,
2009-04-19, 03:11:04,VALID,999.095,VALID,0,VALID,93.295,VALID,0,VALID,23.0396,VALID,72,VALID,0.323438,
2009-04-19, 03:12:04,VALID,999.085,VALID,0,VALID,93.356,VALID,0,VALID,23.0201,VALID,72,VALID,0.29375,
2009-04-19, 03:13:04,VALID,999.073,VALID,0,VALID,93.3942,VALID,0,VALID,23.0006,VALID,72,VALID,0.371875,
2009-04-19, 03:14:04,VALID,999.073,VALID,0,VALID,93.4857,VALID,0,VALID,22.9615,VALID,72,VALID,0.282422,
2009-04-19, 03:15:04,VALID,999.058,VALID,0,VALID,93.5849,VALID,0,VALID,22.9403,VALID,72,VALID,0.220313,
2009-04-19, 03:16:04,VALID,999.023,VALID,0,VALID,93.6612,VALID,0,VALID,22.9615,VALID,72,VALID,0.00117188,
2009-04-19, 03:17:04,VALID,999.036,VALID,0,VALID,93.7146,VALID,0,VALID,22.9225,VALID,72,VALID,0,
2009-04-19, 03:18:04,VALID,999.02,VALID,0,VALID,93.7528,VALID,0,VALID,22.9013,VALID,72,VALID,0.00117188,
2009-04-19, 03:19:04,VALID,999.015,VALID,0,VALID,93.8062,VALID,0,VALID,22.903,VALID,72,VALID,0.182031,
2009-04-19, 03:20:04,VALID,999.006,VALID,0,VALID,93.7985,VALID,0,VALID,22.903,VALID,72,VALID,0.100781,
2009-04-19, 03:21:04,VALID,999.002,VALID,0,VALID,93.7909,VALID,0,VALID,22.864,VALID,72,VALID,0.00507812,
2009-04-19, 03:22:04,VALID,999.012,VALID,0,VALID,93.8062,VALID,0,VALID,22.8445,VALID,72,VALID,0.238281,
2009-04-19, 03:23:04,VALID,999.002,VALID,0,VALID,93.6688,VALID,0,VALID,22.8445,VALID,92,VALID,0.646875,
2009-04-19, 03:24:04,VALID,999.009,VALID,0,VALID,93.4857,VALID,0,VALID,22.8232,VALID,95,VALID,0.439063,
2009-04-19, 03:25:04,VALID,999,VALID,0,VALID,93.2263,VALID,0,VALID,22.8623,VALID,95,VALID,0.177734,
2009-04-19, 03:26:04,VALID,998.997,VALID,0,VALID,93.0585,VALID,0,VALID,22.8623,VALID,95,VALID,0.298828,
2009-04-19, 03:27:04,VALID,999.029,VALID,0,VALID,92.8372,VALID,0,VALID,22.8818,VALID,95,VALID,0.519922,
2009-04-19, 03:28:04,VALID,999.018,VALID,0,VALID,92.6007,VALID,0,VALID,22.903,VALID,89,VALID,0.747656,
2009-04-19, 03:29:04,VALID,999.007,VALID,0,VALID,92.5015,VALID,0,VALID,22.9208,VALID,87,VALID,0.70625,
2009-04-19, 03:30:04,VALID,999.029,VALID,0,VALID,92.265,VALID,0,VALID,22.9615,VALID,87,VALID,0.589844,
2009-04-19, 03:31:04,VALID,999.034,VALID,0,VALID,92.1658,VALID,0,VALID,22.9403,VALID,87,VALID,0.591406,
2009-04-19, 03:32:04,VALID,999.063,VALID,0,VALID,92.0895,VALID,0,VALID,22.9811,VALID,87,VALID,0.446094,
2009-04-19, 03:33:04,VALID,999.063,VALID,0,VALID,92.1429,VALID,0,VALID,22.9793,VALID,109,VALID,0.433984,
2009-04-19, 03:34:04,VALID,999.063,VALID,0,VALID,92.0285,VALID,0,VALID,22.9811,VALID,91,VALID,0.687109,
2009-04-19, 03:35:04,VALID,999.058,VALID,0,VALID,92.0361,VALID,0,VALID,22.9811,VALID,92,VALID,0.622266,
2009-04-19, 03:36:04,VALID,999.073,VALID,0,VALID,91.998,VALID,0,VALID,22.9615,VALID,92,VALID,0.362109,
2009-04-19, 03:37:04,VALID,999.068,VALID,0,VALID,91.9445,VALID,0,VALID,22.9403,VALID,74,VALID,0.383984,
2009-04-19, 03:38:04,VALID,999.074,VALID,0,VALID,92.2497,VALID,0,VALID,22.9615,VALID,74,VALID,0.571484,
2009-04-19, 03:39:04,VALID,999.065,VALID,0,VALID,92.2726,VALID,0,VALID,22.9013,VALID,73,VALID,0.339063,
2009-04-19, 03:40:04,VALID,999.064,VALID,0,VALID,92.3184,VALID,0,VALID,22.9013,VALID,74,VALID,0.307031,
2009-04-19, 03:41:04,VALID,999.032,VALID,0,VALID,92.5397,VALID,0,VALID,22.8623,VALID,74,VALID,0.295312,
2009-04-19, 03:42:04,VALID,999.069,VALID,0,VALID,92.7151,VALID,0,VALID,22.8427,VALID,74,VALID,0.160938,
2009-04-19, 03:43:04,VALID,999.057,VALID,0,VALID,92.8296,VALID,0,VALID,22.825,VALID,74,VALID,0.0484375,
2009-04-19, 03:44:04,VALID,999.02,VALID,0,VALID,92.9898,VALID,0,VALID,22.7647,VALID,74,VALID,0.307031,
2009-04-19, 03:45:04,VALID,999.032,VALID,0,VALID,93.2721,VALID,0,VALID,22.7664,VALID,74,VALID,0.4375,
2009-04-19, 03:46:04,VALID,999.026,VALID,0,VALID,93.4018,VALID,0,VALID,22.7257,VALID,11,VALID,0.611719,
2009-04-19, 03:47:04,VALID,999.022,VALID,0,VALID,93.4247,VALID,0,VALID,22.7257,VALID,11,VALID,0.174219,